Tracking 20369 objects as of 18-Feb-2020
HD Live streaming from Space Station
objects crossing your sky now

OPS 6582 (TRANSIT 5B-5)

Track OPS 6582 (TRANSIT 5B-5) now!
10-day predictions
OPS 6582 (TRANSIT 5B-5) is classified as:


NORAD ID: 965
Int'l Code: 1964-083D
Perigee: 1,024.8 km
Apogee: 1,084.6 km
Inclination: 90.0 °
Period: 106.1 minutes
Semi major axis: 7425 km
RCS: 1.0908 m2 (large)
Launch date: December 13, 1964
Source: United States (US)
Launch site: AIR FORCE WESTERN TEST RANGE (AFWTR)
aabbcc
Your satellite tracking list
Your tracking list is empty




NASA's NSSDC Master Catalog

Two Line Element Set (TLE):
1   965U 64083D   20048.41782212 +.00000019 +00000-0 +13992-4 0  9990
2   965 090.0181 193.3192 0040297 194.0513 218.8720 13.56738441730239
Source of the keplerian elements: AFSPC